This is the latest recevied weather packets stored in our database for station/object K4DFD-13. If no packets are shown the sender has not sent any weather packets the latest 10 day(s).
| Time | Temp. | Humidity | Pressure | Rain* | Wind** | Luminosity | Snow |
|---|---|---|---|---|---|---|---|
| 1777060199 | 25° C | 37% | 1011.1 hPa | 0 mm | - | - | - |
| 1777059899 | 25° C | 38% | 1011.2 hPa | 0 mm | - | - | - |
| 1777059599 | 24.44° C | 37% | 1011.6 hPa | 0 mm | - | - | - |
| 1777059298 | 24.44° C | 37% | 1011.6 hPa | 0 mm | - | - | - |
| 1777058998 | 25° C | 37% | 1011.5 hPa | 0 mm | - | - | - |
| 1777058697 | 25° C | 38% | 1011.6 hPa | 0 mm | - | - | - |
| 1777058397 | 25° C | 36% | 1011.6 hPa | 0 mm | - | - | - |
| 1777058097 | 25.56° C | 37% | 1011.6 hPa | 0 mm | - | - | - |
| 1777057796 | 25° C | 38% | 1011.5 hPa | 0 mm | - | - | - |
| 1777057496 | 25° C | 38% | 1011.7 hPa | 0 mm | - | - | - |
| 1777057195 | 25.56° C | 36% | 1011.9 hPa | 0 mm | - | - | - |
| 1777056895 | 25.56° C | 36% | 1011.9 hPa | 0 mm | - | - | - |
| 1777056595 | 25.56° C | 36% | 1011.8 hPa | 0 mm | - | - | - |
| 1777056294 | 25° C | 38% | 1012 hPa | 0 mm | - | - | - |
| 1777055994 | 25° C | 38% | 1012.1 hPa | 0 mm | - | - | - |
| 1777055694 | 25° C | 38% | 1012.2 hPa | 0 mm | - | - | - |
| 1777055393 | 24.44° C | 37% | 1012.1 hPa | 0 mm | - | - | - |
| 1777055093 | 24.44° C | 40% | 1012.3 hPa | 0 mm | - | - | - |
| 1777054793 | 24.44° C | 41% | 1012.4 hPa | 0 mm | - | - | - |
| 1777054492 | 25° C | 38% | 1012.7 hPa | 0 mm | - | - | - |
| 1777054194 | 25° C | 41% | 1013 hPa | 0 mm | - | - | - |
| 1777053892 | 25.56° C | 39% | 1012.9 hPa | 0 mm | - | - | - |
| 1777053592 | 25.56° C | 40% | 1012.7 hPa | 0 mm | - | - | - |
| 1777053291 | 25.56° C | 39% | 1012.5 hPa | 0 mm | - | - | - |
| 1777052991 | 25° C | 39% | 1012.5 hPa | 0 mm | - | - | - |
* Rain latest hour (hover to see other rain measurements)
** Current wind speed in m/s (hover to see current wind gust speed)